This is the latest recevied weather packets stored in our database for station/object SP1BMW-13. If no packets are shown the sender has not sent any weather packets the latest 10 day(s).
| Time | Temp. | Humidity | Pressure | Rain* | Wind** | Luminosity | Snow |
|---|---|---|---|---|---|---|---|
| 1777471259 | 13.89° C | 29% | 1029.1 hPa | 0 mm | 1.79 m/s, 51° | 505 W/m² | - |
| 1777471199 | 13.89° C | 29% | 1028.9 hPa | 0 mm | 1.79 m/s, 45° | 507 W/m² | - |
| 1777471139 | 13.89° C | 29% | 1028.7 hPa | 0 mm | 3.58 m/s, 254° | 508 W/m² | - |
| 1777471079 | 13.89° C | 31% | 1029 hPa | 0 mm | 1.79 m/s, 313° | 509 W/m² | - |
| 1777471019 | 14.44° C | 28% | 1029 hPa | 0 mm | 1.34 m/s, 332° | 511 W/m² | - |
| 1777470959 | 14.44° C | 29% | 1028.9 hPa | 0 mm | 1.79 m/s, 286° | 512 W/m² | - |
| 1777470899 | 14.44° C | 28% | 1028.9 hPa | 0 mm | 1.34 m/s, 295° | 514 W/m² | - |
| 1777470839 | 13.89° C | 28% | 1029.1 hPa | 0 mm | 2.24 m/s, 306° | 515 W/m² | - |
| 1777470779 | 13.89° C | 28% | 1028.9 hPa | 0 mm | 0.45 m/s, 13° | 515 W/m² | - |
| 1777470719 | 13.89° C | 27% | 1029 hPa | 0 mm | 0.45 m/s, 270° | 516 W/m² | - |
| 1777470659 | 13.89° C | 29% | 1029 hPa | 0 mm | 0.89 m/s, 289° | 518 W/m² | - |
| 1777470599 | 13.89° C | 29% | 1028.9 hPa | 0 mm | 0.45 m/s, 19° | 518 W/m² | - |
| 1777470539 | 13.89° C | 27% | 1029 hPa | 0 mm | 1.34 m/s, 348° | 521 W/m² | - |
| 1777470479 | 13.89° C | 29% | 1029.1 hPa | 0 mm | 1.34 m/s, 7° | 522 W/m² | - |
| 1777470419 | 13.89° C | 29% | 1029.1 hPa | 0 mm | 0.89 m/s, 359° | 522 W/m² | - |
| 1777470359 | 13.89° C | 28% | 1029 hPa | 0 mm | 1.79 m/s, 323° | 524 W/m² | - |
| 1777470299 | 13.89° C | 28% | 1029 hPa | 0 mm | 1.79 m/s, 308° | 525 W/m² | - |
| 1777470239 | 13.89° C | 27% | 1029.1 hPa | 0 mm | 1.34 m/s, 280° | 527 W/m² | - |
| 1777470179 | 13.89° C | 30% | 1029.1 hPa | 0 mm | 1.34 m/s, 298° | 528 W/m² | - |
| 1777470119 | 13.89° C | 29% | 1029.3 hPa | 0 mm | 1.34 m/s, 316° | 529 W/m² | - |
| 1777470059 | 13.89° C | 28% | 1029.1 hPa | 0 mm | 0.89 m/s, 32° | 531 W/m² | - |
| 1777469999 | 14.44° C | 28% | 1029.2 hPa | 0 mm | 2.68 m/s, 330° | 532 W/m² | - |
| 1777469939 | 14.44° C | 28% | 1028.9 hPa | 0 mm | 4.02 m/s, 357° | 534 W/m² | - |
| 1777469879 | 14.44° C | 28% | 1029.2 hPa | 0 mm | 2.24 m/s, 20° | 535 W/m² | - |
| 1777469819 | 14.44° C | 27% | 1029.1 hPa | 0 mm | 1.79 m/s, 304° | 536 W/m² | - |
* Rain latest hour (hover to see other rain measurements)
** Current wind speed in m/s (hover to see current wind gust speed)